KTUA2 Weather Reports


time (UTC)temp
C
wind
direction
speed
KPH
gust
KPH
rain 1hr
cm
rain 24hr
cm
rain mn
cm
humidity
%
barometer
mb
20260507073506 5 112 6.4 16.1 0.00 0.46 0.46 43 1014.4
20260507073006 5 135 11.3 17.7 0.00 0.46 0.46 43 1014.1
20260507072505 5 157 8.0 19.3 0.00 0.43 0.43 41 1014.1
20260507072104 5 157 8.0 22.5 0.00 0.43 0.43 48 1013.8
20260507071510 5 157 8.0 17.7 0.00 0.41 0.41 44 1013.8
20260507071007 5 157 9.7 16.1 0.00 0.41 0.41 46 1014.1
20260507070506 5 135 8.0 12.9 0.00 0.38 0.38 42 1014.1
20260507070010 5 112 14.5 22.5 0.00 0.38 0.38 34 1013.8
20260507065503 5 157 1.6 8.0 0.00 0.38 0.38 37 1013.8
20260507065002 5 157 6.4 12.9 0.00 0.36 0.36 43 1013.8
20260507064507 5 225 0.0 6.4 0.00 0.36 0.36 39 1013.8
20260507064006 5 157 4.8 14.5 0.00 0.36 0.36 39 1013.8
20260507063505 5 180 6.4 9.7 0.00 0.36 0.36 39 1013.8
20260507063004 5 202 3.2 9.7 0.00 0.33 0.33 39 1013.8
20260507062503 5 202 6.4 9.7 0.00 0.33 0.33 42 1013.8
20260507062003 5 202 1.6 9.7 0.00 0.30 0.30 43 1013.8
20260507061508 5 202 3.2 9.7 0.00 0.30 0.30 36 1013.8
20260507061006 5 202 4.8 9.7 0.00 0.30 0.30 30 1013.8
20260507060505 5 157 8.0 16.1 0.00 0.30 0.30 35 1013.8
20260507060118 5 202 3.2 11.3 0.00 0.28 0.28 42 1013.4
20260507055507 5 157 6.4 12.9 0.00 0.28 0.28 41 1013.4
20260507055009 5 202 9.7 16.1 0.00 0.28 0.28 37 1013.4
20260507054505 5 135 9.7 12.9 0.00 0.25 0.25 27 1013.4
20260507054048 5 202 8.0 12.9 0.00 0.25 0.25 37 1013.4
20260507053508 5 180 3.2 8.0 0.00 0.25 0.25 34 1013.4
20260507053130 5 135 6.4 9.7 0.00 0.25 0.25 37 1013.1
20260507052507 5 135 4.8 8.0 0.00 0.25 0.25 36 1013.1
20260507052005 5 180 6.4 16.1 0.00 0.23 0.23 45 1013.1
20260507051505 6 112 3.2 9.7 0.00 0.23 0.23 48 1013.1
20260507051003 6 135 4.8 16.1 0.00 0.23 0.23 51 1013.1
20260507050508 5 135 8.0 17.7 0.00 0.20 0.20 47 1013.1
20260507050007 5 22 3.2 9.7 0.00 0.20 0.20 41 1013.1
20260507045506 5 90 0.0 8.0 0.00 0.20 0.20 37 1013.1
20260507045005 5 157 9.7 16.1 0.00 0.20 0.20 42 1013.1
20260507044504 5 157 1.6 11.3 0.00 0.20 0.20 36 1013.1
20260507044003 5 135 6.4 14.5 0.00 0.20 0.20 36 1013.1
20260507043502 5 90 8.0 19.3 0.00 0.20 0.20 40 1013.1
20260507043007 5 157 6.4 16.1 0.00 0.20 0.20 38 1012.7
20260507042507 5 157 12.9 20.9 0.00 0.20 0.20 46 1012.7
20260507042041 5 112 6.4 16.1 0.00 0.18 0.18 37 1013.1
20260507041515 5 135 9.7 20.9 0.00 0.18 0.18 41 1013.1
20260507041006 5 157 14.5 25.7 0.00 0.18 0.18 50 1013.1
20260507040605 5 135 19.3 27.4 0.00 0.15 0.15 56 1013.1
20260507040006 6 157 19.3 29.0 0.00 0.13 0.13 53 1013.1
20260507035530 6 202 16.1 29.0 0.00 0.08 0.08 56 1013.1
20260507035002 6 157 9.7 17.7 0.00 0.05 0.05 59 1013.1
20260507034505 6 157 14.5 20.9 0.00 0.05 0.05 60 1013.1
20260507034004 6 202 4.8 14.5 0.00 0.05 0.05 61 1013.1
20260507033503 6 157 11.3 17.7 0.00 0.03 0.03 69 1013.1
20260507033002 7 157 14.5 22.5 0.00 0.00 0.00 65 1013.1
20260507032508 7 247 6.4 11.3 0.00 0.00 0.00 76 1013.1
20260507032007 7 202 6.4 9.7 0.00 0.00 0.00 78 1012.7
20260507031506 7 180 1.6 4.8 0.00 0.00 0.00 79 1012.7
20260507031004 7 157 3.2 9.7 0.00 0.00 0.00 79 1013.1
20260507030504 8 157 4.8 12.9 0.00 0.00 0.00 79 1013.1
20260507030003 8 157 9.7 17.7 0.00 0.00 0.00 79 1013.1
20260507025506 8 180 9.7 19.3 0.00 0.00 0.00 78 1013.1
20260507025005 8 202 6.4 16.1 0.00 0.00 0.00 78 1012.7
20260507024504 8 112 11.3 24.1 0.00 0.00 0.00 79 1012.7
20260507024013 8 202 8.0 17.7 0.00 0.00 0.00 78 1012.7
20260507023545 8 157 6.4 9.7 0.00 0.00 0.00 79 1012.7
20260507023014 8 112 1.6 12.9 0.00 0.00 0.00 79 1012.7
20260507022508 8 157 9.7 16.1 0.00 0.00 0.00 78 1012.7
20260507022006 8 202 1.6 9.7 0.00 0.00 0.00 80 1012.4
20260507021623 8 247 4.8 9.7 0.00 0.00 0.00 80 1012.4
20260507021006 8 270 0.0 0.0 0.00 0.00 0.00 77 1012.4
20260507020506 7 202 0.0 0.0 0.00 0.00 0.00 79 1012.4
20260507020005 7 225 0.0 0.0 0.00 0.00 0.00 74 1012.4
20260507015506 7 202 1.6 8.0 0.00 0.00 0.00 76 1012.4
20260507015005 7 202 9.7 12.9 0.00 0.00 0.00 76 1012.4
20260507014505 7 180 9.7 17.7 0.00 0.00 0.00 77 1012.4
20260507014004 7 202 8.0 16.1 0.00 0.00 0.00 73 1012.4
20260507013503 7 202 9.7 14.5 0.00 0.00 0.00 69 1012.4
20260507013002 7 157 14.5 20.9 0.00 0.00 0.00 74 1012.4
20260507012507 7 90 0.0 0.0 0.00 0.00 0.00 77 1012.4
20260507012006 7 247 1.6 6.4 0.00 0.00 0.00 76 1012.7
20260507011505 7 225 6.4 12.9 0.00 0.00 0.00 76 1012.7
20260507011004 7 225 9.7 14.5 0.00 0.00 0.00 76 1012.7
20260507010509 7 202 12.9 16.1 0.00 0.00 0.00 77 1012.7
20260507010010 7 202 0.0 0.0 0.00 0.00 0.00 72 1012.7
20260507005608 7 180 0.0 0.0 0.00 0.00 0.00 73 1012.7
20260507005008 7 247 0.0 0.0 0.00 0.00 0.00 74 1012.7
20260507004505 7 225 4.8 11.3 0.00 0.00 0.00 77 1012.7
20260507004008 8 202 1.6 8.0 0.00 0.00 0.00 78 1012.7
20260507003554 8 270 1.6 8.0 0.00 0.00 0.00 70 1012.7
20260507003006 8 270 0.0 0.0 0.00 0.00 0.00 74 1012.7
20260507002503 8 22 0.0 0.0 0.00 0.00 0.00 75 1012.7
20260507002002 8 337 0.0 0.0 0.00 0.00 0.00 75 1012.7
20260507001508 8 292 1.6 8.0 0.00 0.00 0.00 75 1012.7
20260507001006 8 337 0.0 0.0 0.00 0.00 0.00 71 1012.4
20260507000505 8 247 0.0 0.0 0.00 0.00 0.00 72 1012.4
20260507000004 7 292 0.0 0.0 0.00 0.00 0.00 67 1012.4
20260506235503 8 270 4.8 9.7 0.00 0.00 0.00 69 1012.4
20260506235002 7 337 9.7 17.7 0.00 0.00 0.00 69 1012.4
20260506234507 8 337 4.8 11.3 0.00 0.00 0.00 69 1012.4
20260506234006 8 337 1.6 8.0 0.00 0.00 0.00 69 1012.7
20260506233505 8 315 0.0 0.0 0.00 0.00 0.00 71 1012.7
20260506233004 8 157 3.2 11.3 0.00 0.00 0.00 70 1012.4
20260506232509 8 292 1.6 1.6 0.00 0.00 0.00 72 1012.4
20260506232012 8 270 3.2 9.7 0.00 0.00 0.00 73 1012.7
20260506231516 8 225 4.8 9.7 0.00 0.00 0.00 74 1012.7
20260506231035 8 292 1.6 8.0 0.00 0.00 0.00 75 1012.4
20260506230505 8 247 8.0 11.3 0.00 0.00 0.00 75 1012.4
20260506230108 8 180 8.0 14.5 0.00 0.00 0.00 76 1012.4
20260506225504 7 292 6.4 16.1 0.00 0.00 0.00 77 1012.4
20260506225008 8 247 12.9 19.3 0.00 0.00 0.00 77 1012.4
20260506224521 8 247 9.7 20.9 0.00 0.00 0.00 80 1012.4
20260506224004 10 247 8.0 16.1 0.00 0.00 0.00 78 1012.4
20260506223506 9 247 6.4 9.7 0.00 0.00 0.00 79 1012.4
20260506223006 10 225 8.0 9.7 0.00 0.00 0.00 78 1012.1
20260506222505 10 247 8.0 20.9 0.00 0.00 0.00 79 1012.1
20260506222004 9 247 4.8 14.5 0.00 0.00 0.00 78 1012.1
20260506221503 9 247 4.8 17.7 0.00 0.00 0.00 78 1012.1
20260506221007 8 270 9.7 16.1 0.00 0.00 0.00 79 1011.7
20260506220506 8 225 1.6 9.7 0.00 0.00 0.00 79 1011.7
20260506220002 8 292 6.4 16.1 0.00 0.00 0.00 78 1011.7
20260506215507 8 202 11.3 24.1 0.00 0.00 0.00 77 1011.7
20260506215007 8 202 16.1 24.1 0.00 0.00 0.00 77 1011.7
20260506214505 8 202 20.9 29.0 0.00 0.00 0.00 77 1011.7
20260506214004 8 202 16.1 25.7 0.00 0.00 0.00 77 1011.7
20260506213509 8 202 14.5 25.7 0.00 0.00 0.00 76 1011.7
20260506213024 8 225 17.7 32.2 0.00 0.00 0.00 76 1011.7
20260506212503 8 202 14.5 20.9 0.00 0.00 0.00 77 1011.7
20260506212031 8 180 8.0 16.1 0.00 0.00 0.00 77 1011.7
20260506211513 8 202 17.7 25.7 0.00 0.00 0.00 79 1011.7
20260506211009 8 202 12.9 22.5 0.00 0.00 0.00 79 1011.7
20260506210507 8 247 11.3 19.3 0.00 0.00 0.00 79 1011.7
20260506210006 8 202 11.3 24.1 0.00 0.00 0.00 79 1011.4
20260506205505 7 247 12.9 24.1 0.00 0.00 0.00 79 1011.4
20260506205007 7 247 11.3 19.3 0.00 0.00 0.00 79 1011.4
20260506204506 7 202 8.0 14.5 0.00 0.00 0.00 79 1011.4
20260506204005 7 202 8.0 17.7 0.00 0.00 0.00 79 1011.4
20260506203505 7 247 9.7 17.7 0.00 0.00 0.00 79 1011.4
20260506203004 7 247 6.4 12.9 0.00 0.00 0.00 79 1011.4
20260506202503 7 202 11.3 17.7 0.00 0.00 0.00 80 1011.4
20260506202002 7 202 14.5 17.7 0.00 0.00 0.00 79 1011.4
20260506201507 8 202 11.3 19.3 0.00 0.00 0.00 80 1011.4
20260506201005 8 225 11.3 17.7 0.00 0.00 0.00 79 1011.4
20260506200504 8 225 9.7 11.3 0.00 0.00 0.00 79 1011.4
20260506200010 8 202 3.2 11.3 0.00 0.00 0.00 79 1011.0
20260506195507 8 202 4.8 9.7 0.00 0.00 0.00 79 1011.0
20260506195012 7 202 6.4 11.3 0.00 0.00 0.00 79 1011.0
20260506194510 8 270 0.0 0.0 0.00 0.00 0.00 79 1011.0
20260506194014 8 247 0.0 0.0 0.00 0.00 0.00 79 1011.0
20260506193510 8 360 1.6 0.0 0.00 0.00 0.00 80 1011.0
20260506193044 8 337 1.6 6.4 0.00 0.00 0.00 79 1011.0
20260506192508 8 315 1.6 6.4 0.00 0.00 0.00 79 1011.0
20260506192007 7 337 3.2 9.7 0.00 0.00 0.00 79 1011.0
20260506191518 7 315 1.6 8.0 0.00 0.00 0.00 79 1011.0
20260506191005 7 292 6.4 11.3 0.00 0.00 0.00 79 1011.0
20260506190505 7 292 1.6 8.0 0.00 0.00 0.00 80 1011.0
20260506190016 8 270 0.0 0.0 0.00 0.00 0.00 79 1011.0
20260506185504 8 337 1.6 8.0 0.00 0.00 0.00 79 1011.0
20260506185002 7 315 6.4 11.3 0.00 0.00 0.00 79 1010.7
20260506184507 7 337 4.8 9.7 0.00 0.00 0.00 79 1010.7
20260506184006 7 337 1.6 9.7 0.00 0.00 0.00 77 1010.7
20260506183505 7 315 1.6 9.7 0.00 0.00 0.00 78 1010.7
20260506183005 7 315 0.0 0.0 0.00 0.00 0.00 79 1010.7
20260506182504 7 22 3.2 9.7 0.00 0.00 0.00 79 1010.7
20260506182008 7 292 0.0 0.0 0.00 0.00 0.00 77 1010.7
20260506181516 7 292 3.2 11.3 0.00 0.00 0.00 77 1010.7
20260506181006 7 270 1.6 4.8 0.00 0.00 0.00 78 1010.4
20260506180504 7 337 3.2 8.0 0.00 0.00 0.00 77 1010.4
20260506180009 7 292 3.2 8.0 0.00 0.00 0.00 78 1010.4
20260506175507 7 270 4.8 9.7 0.00 0.00 0.00 79 1010.4
20260506175012 7 360 3.2 8.0 0.00 0.00 0.00 79 1010.0
20260506174635 7 270 0.0 0.0 0.00 0.00 0.00 78 1010.0
20260506174008 7 225 0.0 0.0 0.00 0.00 0.00 77 1010.0
20260506173505 7 292 0.0 0.0 0.00 0.00 0.00 78 1010.0
20260506173004 7 247 0.0 0.0 0.00 0.00 0.00 78 1010.0
20260506172503 6 315 0.0 0.0 0.00 0.00 0.00 78 1010.0
20260506172008 6 247 0.0 0.0 0.00 0.00 0.00 77 1010.0
20260506171507 6 292 0.0 0.0 0.00 0.00 0.00 77 1010.0
20260506171006 7 292 0.0 0.0 0.00 0.00 0.00 79 1010.0
20260506170504 6 292 0.0 0.0 0.00 0.00 0.00 78 1010.0
20260506170004 7 315 0.0 0.0 0.00 0.00 0.00 78 1009.7
20260506165503 6 292 0.0 0.0 0.00 0.00 0.00 78 1009.7
20260506165002 6 315 0.0 0.0 0.00 0.00 0.00 79 1009.7
20260506164507 6 337 0.0 0.0 0.00 0.00 0.00 78 1009.7
20260506164003 6 337 0.0 0.0 0.00 0.00 0.00 77 1009.7
20260506163531 6 292 0.0 0.0 0.00 0.00 0.00 78 1009.7
20260506163008 6 337 0.0 0.0 0.00 0.00 0.00 78 1009.4
20260506162505 6 22 0.0 0.0 0.00 0.00 0.00 77 1009.4
20260506162040 6 337 3.2 6.4 0.00 0.00 0.00 77 1009.4
20260506161518 6 22 0.0 4.8 0.00 0.00 0.00 76 1009.4
20260506161003 5 22 1.6 6.4 0.00 0.00 0.00 75 1009.4
20260506160507 5 45 0.0 8.0 0.00 0.00 0.00 74 1009.4
20260506160004 5 22 4.8 11.3 0.00 0.00 0.00 73 1009.0
20260506155503 5 45 0.0 0.0 0.00 0.00 0.00 74 1009.0
20260506155002 5 67 0.0 0.0 0.00 0.00 0.00 73 1009.0
20260506154507 5 67 0.0 0.0 0.00 0.00 0.00 73 1009.0
20260506154002 5 337 0.0 0.0 0.00 0.00 0.00 73 1009.0
20260506153507 5 337 0.0 0.0 0.00 0.00 0.00 73 1009.0
20260506153006 5 315 0.0 0.0 0.00 0.00 0.00 74 1008.7
20260506152505 5 22 0.0 0.0 0.00 0.00 0.00 73 1008.7
20260506152005 5 22 0.0 0.0 0.00 0.00 0.00 73 1008.7
20260506151504 5 337 0.0 0.0 0.00 0.00 0.00 74 1008.7
20260506151008 5 337 1.6 6.4 0.00 0.00 0.00 75 1008.7
20260506150507 5 22 0.0 0.0 0.00 0.00 0.00 75 1008.7
20260506150006 5 45 0.0 0.0 0.00 0.00 0.00 75 1008.7
20260506145511 5 67 1.6 6.4 0.00 0.00 0.00 75 1008.7
20260506145034 5 22 0.0 8.0 0.00 0.00 0.00 75 1008.7
20260506144504 5 22 0.0 0.0 0.00 0.00 0.00 73 1008.7
20260506144009 5 45 0.0 0.0 0.00 0.00 0.00 71 1008.7
20260506143506 5 22 0.0 0.0 0.00 0.00 0.00 70 1008.7
20260506143022 5 22 0.0 0.0 0.00 0.00 0.00 69 1008.7
20260506142505 5 45 0.0 0.0 0.00 0.00 0.00 68 1008.7
20260506142007 4 45 0.0 0.0 0.00 0.00 0.00 66 1008.3
20260506141506 5 180 0.0 0.0 0.00 0.00 0.00 61 1008.3
20260506141004 5 180 0.0 0.0 0.00 0.00 0.00 62 1008.7
20260506140504 5 180 0.0 0.0 0.00 0.00 0.00 64 1008.7
20260506140002 5 202 0.0 0.0 0.00 0.00 0.00 64 1008.7
20260506135507 5 157 0.0 0.0 0.00 0.00 0.00 65 1008.7
20260506135006 5 202 3.2 8.0 0.00 0.00 0.00 67 1008.7
20260506134505 5 157 1.6 4.8 0.00 0.00 0.00 69 1008.7
20260506134029 5 202 1.6 8.0 0.00 0.00 0.00 68 1008.7
20260506133502 5 202 3.2 9.7 0.00 0.00 0.00 69 1008.7
20260506133007 5 180 8.0 9.7 0.00 0.00 0.00 73 1008.7
20260506132506 5 180 4.8 11.3 0.00 0.00 0.00 76 1008.7
20260506132005 5 157 3.2 6.4 0.00 0.00 0.00 78 1008.7
20260506131527 5 157 0.0 0.0 0.00 0.00 0.00 75 1008.7
20260506131004 5 202 0.0 0.0 0.00 0.00 0.00 74 1008.3
20260506130515 5 225 0.0 0.0 0.00 0.00 0.00 75 1008.3
20260506130012 5 135 4.8 9.7 0.00 0.00 0.00 75 1008.3
20260506125508 5 202 4.8 9.7 0.00 0.00 0.00 76 1008.3
20260506125042 5 202 1.6 8.0 0.00 0.00 0.00 77 1008.3
20260506124507 5 202 1.6 9.7 0.00 0.00 0.00 76 1008.3
20260506124005 5 202 0.0 0.0 0.00 0.00 0.00 76 1008.7
20260506123507 5 157 1.6 8.0 0.00 0.00 0.00 75 1008.7
20260506123006 5 202 6.4 11.3 0.00 0.00 0.00 76 1008.3
20260506122505 5 202 0.0 6.4 0.00 0.00 0.00 76 1008.3
20260506122004 5 157 8.0 12.9 0.00 0.00 0.00 77 1008.3
20260506121503 5 202 3.2 8.0 0.00 0.00 0.00 76 1008.3
20260506121007 5 180 1.6 6.4 0.00 0.00 0.00 76 1008.3
20260506120507 5 202 1.6 6.4 0.00 0.00 0.00 76 1008.3
20260506120005 5 157 0.0 3.2 0.00 0.00 0.00 76 1008.3
20260506115504 5 202 3.2 8.0 0.00 0.00 0.00 76 1008.3
20260506115003 5 202 0.0 3.2 0.00 0.00 0.00 76 1008.3
20260506114508 5 202 1.6 8.0 0.00 0.00 0.00 77 1008.3
20260506114007 5 157 0.0 3.2 0.00 0.00 0.00 77 1008.3
20260506113505 5 157 1.6 8.0 0.00 0.00 0.00 76 1008.3
20260506113014 5 180 3.2 8.0 0.00 0.00 0.00 76 1008.3
20260506112510 5 180 4.8 9.7 0.00 0.00 0.00 77 1008.3
20260506112009 5 202 4.8 12.9 0.00 0.00 0.00 78 1008.0
20260506111702 5 157 8.0 17.7 0.00 0.00 0.00 79 1008.0
20260506111006 5 225 6.4 17.7 0.00 0.00 0.00 79 1008.0
20260506110503 6 202 4.8 12.9 0.00 0.00 0.00 80 1008.0
20260506110002 6 157 6.4 12.9 0.00 0.00 0.00 80 1008.0
20260506105501 6 157 8.0 16.1 0.00 0.00 0.00 81 1008.0
20260506105007 6 202 9.7 16.1 0.00 0.00 0.00 81 1008.0
20260506104506 6 180 4.8 11.3 0.00 0.00 0.00 81 1008.0
20260506104005 6 180 3.2 12.9 0.00 0.00 0.00 81 1008.0
20260506103504 5 180 12.9 17.7 0.00 0.00 0.00 80 1008.0
20260506103003 5 202 9.7 17.7 0.00 0.00 0.00 80 1008.0
20260506102503 5 180 12.9 24.1 0.00 0.00 0.00 80 1008.0
20260506102008 5 202 8.0 16.1 0.00 0.00 0.00 80 1008.0
20260506101507 6 202 8.0 14.5 0.00 0.00 0.00 81 1008.0
20260506101004 6 202 12.9 24.1 0.00 0.00 0.00 81 1007.7
20260506100503 6 180 8.0 16.1 0.00 0.00 0.00 81 1007.7
20260506100040 6 157 16.1 20.9 0.00 0.00 0.00 81 1008.0
20260506095522 6 202 12.9 19.3 0.00 0.00 0.00 81 1008.0
20260506095003 6 157 8.0 16.1 0.00 0.00 0.00 81 1008.0
20260506094508 6 202 11.3 16.1 0.00 0.00 0.00 81 1008.0
20260506094019 6 157 14.5 20.9 0.00 0.00 0.00 81 1007.7
20260506093547 6 180 12.9 29.0 0.00 0.00 0.00 81 1007.7
20260506093004 6 202 8.0 12.9 0.00 0.00 0.00 80 1007.7
20260506092503 6 180 14.5 22.5 0.00 0.00 0.00 78 1007.7
20260506092008 6 202 14.5 24.1 0.00 0.00 0.00 77 1007.3
20260506091507 7 157 14.5 25.7 0.00 0.00 0.00 74 1007.3
20260506091005 7 180 11.3 24.1 0.00 0.00 0.00 74 1007.7
20260506090504 7 225 12.9 24.1 0.00 0.00 0.00 73 1007.7
20260506090004 7 202 14.5 24.1 0.00 0.00 0.00 72 1007.7
20260506085503 7 202 14.5 27.4 0.00 0.00 0.00 70 1007.7
20260506085008 7 202 12.9 20.9 0.00 0.00 0.00 70 1007.3
20260506084507 7 180 12.9 24.1 0.00 0.00 0.00 70 1007.3
20260506084006 7 225 4.8 9.7 0.00 0.00 0.00 67 1007.3
20260506083505 7 180 6.4 12.9 0.00 0.00 0.00 67 1007.3
20260506083003 7 202 6.4 11.3 0.00 0.00 0.00 66 1007.3
20260506082508 7 202 0.0 0.0 0.00 0.00 0.00 66 1007.3
20260506082029 7 202 0.0 0.0 0.00 0.00 0.00 67 1007.0
20260506081508 7 202 0.0 3.2 0.00 0.00 0.00 66 1007.0
20260506081018 7 202 3.2 9.7 0.00 0.00 0.00 66 1007.0
20260506080503 7 202 3.2 8.0 0.00 0.00 0.00 66 1007.0